{"data":{"norad_id":67353,"intl_designator":"2026-003V","name":"STARLINK-36474","alt_names":[],"object_type":"PAYLOAD","status":"ACTIVE","operator":null,"country":"US","launch_date":"2026-01-09","launch_site_code":"AFETR","launch_vehicle":null,"mission":null,"orbit_class":"UNKNOWN","rcs_meters":null,"size_class":null,"mass_kg":null,"dimensions":null,"purposes":["comms"],"wikipedia_slug":null,"has_3d_model":false,"image_url":null,"decayed_at":null,"tle_current":{"epoch":"2026-09-19T21:59:25.628640Z","epoch_age_seconds":125806,"freshness":"FRESH","line1":"1 67353U 26003V   26262.91626885  .00012894  00000+0  47708-3 0  9990","line2":"2 67353  43.0015 210.5851 0001299 264.3129  95.7575 15.27591177 38520","mean_motion":15.27591177,"eccentricity":0.0001299,"inclination_deg":43.0015,"raan_deg":210.5851,"arg_perigee_deg":264.3129,"mean_anomaly_deg":95.7575,"bstar":0.00047708,"rev_number":3852,"period_min":94.266058987587,"perigee_km":482.1243645584,"apogee_km":483.90689201123,"semimajor_km":6861.1526282848,"source":"CELESTRAK","updated_at":"2026-09-20T09:00:43.515428Z"}}}